Flag for U.S.A. Weather past 2 weeks in Livonia, Michigan, U.S.A.

Now
79 °F

Mostly cloudy.


Feels Like: 82 °F
Forecast: 69 / 83 °F
Wind: 9 mph from Southwest

Location: Detroit Metropolitan Wayne County Airport

Current Time: Aug 21, 2014 at 8:00:29 PM

Latest Report: Aug 21, 2014 at 6:53 PM


Visibility: 9 mi

Pressure: 29.95 "Hg

Humidity: 74%

Dew point: 70 °F

Location of LivoniaLocation

Historic Weather in Livonia — Graph

°F

Livonia temperature yesterday

Maximum temperature yesterday: 84 °F (at 4:53 PM)
Minimum temperature yesterday: 66 °F (at 6:53 AM)
Average temperature yesterday: 73 °F

Past Weeks' High & Low Weather Summary

 TemperatureHumidityPressure
High84 °F (Aug 10, 3:53 PM)100% (Aug 11, 4:59 PM)30.16 "Hg (Aug 11, 4:59 PM)
Low50 °F (Aug 15, 4:53 AM)36% (Aug 7, 4:53 PM)29.67 "Hg (Aug 12, 1:53 PM)
Average69 °F71%29.95 "Hg
* Reported Aug 6 6:53 PM — Aug 21 6:53 PM, Livonia, Weather by CustomWeather, © 2014

Note: Actual official high and low records may vary slightly from our data, if they occured in-between our weather recording intervals... More about our weather records

Advertising

Livonia weather history for previous 24 hours

 ConditionsComfort  
Time TempWeatherWind HumidityBarometerVisibility
6:53 PM
Aug 21
79 °FMostly cloudy.9 mph74%29.95 "Hg9 mi
5:53 PM79 °FMostly cloudy.6 mph74%29.95 "Hg9 mi
4:53 PM78 °FLight rain. More clouds than sun.3 mph79%29.95 "Hg9 mi
3:53 PM80 °FMore clouds than sun.No wind71%29.96 "Hg9 mi
2:53 PM79 °FMostly cloudy.3 mph72%29.96 "Hg10 mi
1:53 PM78 °FMostly cloudy.6 mph71%29.98 "Hg10 mi
12:53 PM77 °FMore clouds than sun.7 mph71%29.99 "Hg10 mi
11:53 AM77 °FCloudy.3 mph69%30.00 "Hg10 mi
10:53 AM76 °FBroken clouds.6 mph72%29.99 "Hg10 mi
9:53 AM75 °FScattered clouds.No wind71%29.98 "Hg10 mi
8:53 AM72 °FBroken clouds.3 mph76%29.97 "Hg10 mi
7:53 AM70 °FMostly cloudy.No wind81%29.97 "Hg9 mi
6:53 AM67 °FOvercast.No wind87%29.96 "Hg10 mi
5:53 AM68 °FPartly cloudy.No wind84%29.95 "Hg10 mi
4:53 AM67 °FPartly cloudy.3 mph87%29.95 "Hg10 mi
3:53 AM68 °FPartly cloudy.No wind84%29.94 "Hg10 mi
2:53 AM68 °FPartly cloudy.6 mph84%29.94 "Hg10 mi
1:53 AM69 °FPartly cloudy.3 mph81%29.95 "Hg10 mi
12:53 AM69 °FPartly cloudy.No wind84%29.96 "Hg10 mi
11:53 PM
Aug 20
72 °FPassing clouds.5 mph73%29.96 "Hg10 mi
10:53 PM73 °FPassing clouds.7 mph71%29.95 "Hg10 mi
9:53 PM74 °FPassing clouds.3 mph69%29.92 "Hg10 mi
8:53 PM76 °FScattered clouds.7 mph64%29.89 "Hg10 mi
Weather by CustomWeather, © 2014

See weather overviewHow to use our weather pages